[Iaude] MPEC Q214: 2020 QL6 [a=1.67,e=0.31,i=34.9,H=19.0]

mpec at marsden.cfa.harvard.edu mpec at marsden.cfa.harvard.edu
Fri Aug 28 06:54:20 EDT 2020


M.P.E.C. 2020-Q214                              Issued 2020 August 28, 10:53 UT

     The Minor Planet Electronic Circulars contain information on unusual
         minor planets and routine data on comets.  They are published
    on behalf of Division F of the International Astronomical Union by the
          Minor Planet Center, Smithsonian Astrophysical Observatory,
                          Cambridge, MA 02138, U.S.A.

             Prepared using the Tamkin Foundation Computer Network

                              MPC at CFA.HARVARD.EDU
            URL https://www.minorplanetcenter.net/    ISSN 1523-6714

                                    2020 QL6                                    


Observations:
     K20Q06L  C2020 08 25.53715003 08 20.554+14 10 18.31         20.81wUEQ214F52
     K20Q06L* C2020 08 25.53778703 08 20.546+14 10 19.45         20.88wUEQ214F52
     K20Q06L  C2020 08 25.54941803 08 20.285+14 10 46.92         20.98wUEQ214F52
     K20Q06L  C2020 08 25.55005403 08 20.271+14 10 48.40         21.29wUEQ214F52
     K20Q06L  C2020 08 25.56169803 08 20.003+14 11 15.74         20.96wUEQ214F52
     K20Q06L  C2020 08 25.56233603 08 19.979+14 11 17.18         20.76wUEQ214F52
     K20Q06L  C2020 08 25.57392803 08 19.718+14 11 44.29         21.20wUEQ214F52
     K20Q06L  C2020 08 25.57456403 08 19.688+14 11 45.66         20.98wUEQ214F52
     K20Q06L KC2020 08 25.97233503 08 12.14 +14 27 08.7          19.8 GVEQ214L01
     K20Q06L KC2020 08 25.97454903 08 12.09 +14 27 14.0          20.0 GVEQ214L01
     K20Q06L KC2020 08 25.97676103 08 12.04 +14 27 19.1          20.2 GVEQ214L01
     K20Q06L KC2020 08 25.98192003 08 11.93 +14 27 30.8          20.2 GVEQ214L01
     K20Q06L KC2020 08 26.99779203 07 49.45 +15 07 17.2          20.1 GVEQ214C95
     K20Q06L KC2020 08 27.03134803 07 48.62 +15 08 35.6          20.7 GVEQ214C95
     K20Q06L KC2020 08 27.04784003 07 48.21 +15 09 14.7          21.2 GVEQ214I93
     K20Q06L KC2020 08 27.07583903 07 47.40 +15 10 20.6          20.7 GVEQ214I93
     K20Q06L KC2020 08 27.09423403 07 46.90 +15 11 04.4          19.5 GVEQ214I93
     K20Q06L  C2020 08 27.41361 03 07 38.96 +15 23 41.1          19.6 GVEQ214I52
     K20Q06L  C2020 08 27.41505 03 07 38.89 +15 23 44.7          19.7 GVEQ214I52
     K20Q06L  C2020 08 27.41648 03 07 38.88 +15 23 47.8          20.0 GVEQ214I52
     K20Q06L  C2020 08 27.42520 03 07 38.61 +15 24 07.4                VEQ214I52
     K20Q06L  C2020 08 28.38251 03 07 12.47 +16 02 01.2          21.9 GVEQ214I52
     K20Q06L  C2020 08 28.38328 03 07 12.42 +16 02 02.3          20.9 GVEQ214I52
     K20Q06L  C2020 08 28.38574 03 07 12.41 +16 02 08.2          21.6 GVEQ214I52
     K20Q06L  C2020 08 28.38651 03 07 12.35 +16 02 10.2          20.7 GVEQ214I52

Observer details:
C95 SATINO Remote Observatory, Haute Provence.  Observer J. Jahn.  0.60-m
    f/3.2 Newtonian reflector + CCD.
F52 Pan-STARRS 2, Haleakala.  Observers J. Bulger, T. Dukes, T. Lowe, A.
    Schultz, M. Willman.  Measurers K. Chambers, S. Chastel, T. de Boer, L.
    Denneau, J. Fairlamb, H. Flewelling, M. Huber, C.-C. Lin, E. Magnier, Y.
    Ramanjooloo, R. Wainscoat, R. Weryk.  1.8-m Ritchey-Chretien + CCD.
I52 Steward Observatory, Mt. Lemmon Station.  Observer D. C. Fuls.  Measurers
    E. J. Christensen, G. A. Farneth, D. C. Fuls, A. R. Gibbs, A. D. Grauer,
    H. Groeller, R. A. Kowalski, S. M. Larson, G. J. Leonard, T. A. Pruyne, D.
    Rankin, R. L. Seaman, F. C. Shelly, K. W. Wierzchos.  1.0-m reflector +
    CCD.
I93 St Pardon de Conques.  Observer F. Losse.  0.40-m f/3.7 reflector + CCD.
L01 Visnjan Observatory, Tican.  Observer K. Korlevic.  1.0-m f/2.9 reflector
    + CCD.

Orbital elements:
2020 QL6                                                 Earth MOID = 0.3525 AU
Epoch 2020 May 31.0 TT = JDT 2459000.5                  Veres
M   2.69502              (2000.0)            P               Q
n   0.45691820     Peri.  282.56813     +0.30109803     +0.95167420
a   1.6694641      Node     6.07231     -0.48761606     +0.20814759
e   0.3144595      Incl.   34.86225     -0.81949408     +0.22581142
P   2.16           H   19.0           G   0.15           U   9
Residuals in seconds of arc
200825 F52  0.0   0.0     200825 L01  0.2-  0.3+    200827 I52  0.3-  0.2+
200825 F52  0.1+  0.3-    200825 L01  0.3-  0.2+    200827 I52  0.1+  0.1-
200825 F52  0.1+  0.1-    200825 L01  0.2-  0.2-    200827 I52  0.1-  1.2-
200825 F52  0.1+  0.1-    200826 C95  0.1+  1.0+    200828 I52  0.2-  0.6+
200825 F52  0.1+  0.0     200827 C95  0.7+  0.1-    200828 I52  0.5-  0.2-
200825 F52  0.0   0.0     200827 I93  0.7+  0.2+    200828 I52  0.5+  0.2-
200825 F52  0.1+  0.0     200827 I93  0.2-  0.2-    200828 I52  0.0   0.0
200825 F52  0.1-  0.1-    200827 I93  0.2-  0.0
200825 L01  0.2-  0.2+    200827 I52  0.1+  0.0

Ephemeris:
2020 QL6                 a,e,i = 1.67, 0.31, 35                  q = 1.1445
Date    TT    R. A. (2000) Decl.     Delta      r    Elong.  Phase     V
2020 07 29    02 59 36.2 -01 51 32   0.8781  1.2770    84.5    52.3    21.2
...
2020 08 13    03 08 07.2 +06 27 33   0.8021  1.3347    93.9    49.2    21.0
...
2020 08 21    03 09 10.1 +11 17 19   0.7604  1.3676   100.1    46.8    20.9
...
2020 08 27    03 07 48.9 +15 07 27   0.7304  1.3929   105.2    44.4    20.7
2020 08 28    03 07 22.9 +15 46 53   0.7256  1.3972   106.1    44.0    20.7
2020 08 29    03 06 53.2 +16 26 37   0.7209  1.4015   107.0    43.6    20.7
...
2020 09 04    03 02 28.0 +20 30 54   0.6943  1.4274   112.6    40.7    20.6
...
2020 09 12    02 52 06.7 +26 07 24   0.6654  1.4624   120.6    36.3    20.4
...
2020 09 27    02 15 58.0 +36 11 02   0.6424  1.5284   135.5    27.4    20.2

M. P. C. Staff               (C) Copyright 2020 MPC           M.P.E.C. 2020-Q214




More information about the Iaude mailing list